Location: Engle Ridge Observatory
(44.8122°N, 85.4398°W)
Time: 07:22:40
(UTC-04:00)

Daily predictions for brighter satellites

Satellite Brightness Start Highest point End
(mag) Time Altitude Azimuth Time Altitude Azimuth Time Altitude Azimuth
Timation 1 Rocket 4.4 20:56:15 10° NNW 21:02:15 83° ENE 21:08:13 10° SSE
Cosmos 2184 Rocket 4.2 20:56:12 10° S 21:02:22 80° W 21:08:33 10° N
NOSS 2-1 (E) 3.1 21:04:26 10° SSW 21:08:03 74° SE 21:12:11 10° NE
Cosmos 1470 Rocket 4.4 21:04:27 10° N 21:08:24 31° ENE 21:12:22 10° SE
Resurs 01 Rocket 2.0 21:04:15 10° SE 21:08:31 48° ENE 21:12:48 10° N
SJ-6B 3.3 21:08:18 10° S 21:12:18 65° WSW 21:16:15 10° NNW
Meteor 2-3 Rocket 3.9 21:06:46 10° N 21:12:18 56° ENE 21:17:49 10° SSE
BREEZE-M DEB (TANK) 3.7 21:01:16 10° WSW 21:12:29 64° NNW 21:15:47 10° ENE
Meteor 2-21 4.5 21:06:55 10° S 21:13:01 74° E 21:19:13 10° NNE
Cosmos 1939 Rocket 2.8 21:15:08 10° SSE 21:18:59 69° ENE 21:22:54 10° N
NOSS 3-3 (A) 4.0 21:16:12 10° SSW 21:22:10 67° ESE 21:28:46 10° NE
NOSS 3-3 (C) 4.0 21:16:19 10° SSW 21:22:17 67° ESE 21:28:51 10° NE
Cosmos 2341 Rocket 4.1 21:16:07 10° S 21:22:20 59° E 21:28:32 10° NNE
NOSS 0 Rocket 4.2 21:17:44 10° S 21:23:33 46° ESE 21:29:26 10° NE
Cosmos 962 Rocket 4.5 21:18:08 10° S 21:24:07 62° E 21:30:14 10° NNE
Cosmos 2360 Rocket 4.1 21:23:16 10° WSW 21:28:22 35° NW 21:33:31 10° N
Aureole 2 4.5 21:26:25 10° S 21:29:15 38° ESE 21:32:01 10° NE
Cosmos 1980 4.0 21:24:56 10° S 21:30:17 44° ESE 21:35:39 10° NE
Cosmos 1666 Rocket 4.0 21:26:37 10° NNW 21:31:05 66° W 21:35:29 10° S
ERS-1 Rocket 4.4 21:30:08 12° ESE 21:33:21 22° ENE 21:37:07 10° NNE
Cosmos 1408 3.1 21:31:50 10° N 21:35:20 41° ENE 21:38:10 14° SE
Cosmos 220 Rocket 4.0 21:31:54 10° NNW 21:36:16 89° WSW 21:40:33 10° SSE
Cosmos 1933 Rocket 3.8 21:32:49 10° N 21:37:07 51° ENE 21:41:04 12° SSE
Cosmos 2366 rocket 4.5 21:33:02 10° SSE 21:38:43 39° E 21:44:28 10° NNE
H-2A R/B 3.2 21:36:33 14° ESE 21:39:44 26° ENE 21:43:49 10° N
Cosmos 2333 Rocket 2.2 21:35:22 10° SSW 21:41:02 83° ESE 21:46:43 10° NNE
Sich 1 4.1 21:36:58 10° NNW 21:41:04 45° W 21:45:08 10° SSW
ERS-2 3.6 21:37:44 10° S 21:41:10 38° W 21:44:38 10° NNW
Resurs 1-3 3.8 21:37:29 10° S 21:41:52 75° WSW 21:46:16 10° NNW
Cosmos 1151 Rocket 3.1 21:38:22 10° S 21:42:31 54° E 21:46:42 10° NNE
Cosmos 1844 Rocket 3.9 21:37:20 10° NW 21:42:37 41° WSW 21:47:52 10° S
Cosmos 1455 2.2 21:39:05 10° S 21:42:54 83° W 21:46:48 10° N
USA 186 2.9 21:41:48 10° SSW 21:43:48 28° W 21:45:53 10° NNW
Meteor 1-27 4.2 21:38:26 10° S 21:44:11 86° E 21:49:52 10° NNE
COSMOS 2428 3.5 21:40:41 10° SW 21:46:18 57° WNW 21:51:57 10° NNE
SL-8 Rocket 4.1 21:41:32 10° S 21:47:43 60° E 21:53:53 10° NNE
Cosmos 1892 4.0 21:45:08 10° NNW 21:48:49 41° W 21:52:27 10° SSW
YAOGAN 6 4.0 21:50:32 10° SSW 21:53:55 38° W 21:57:22 10° NNW
Cosmos 2219 Rocket 2.6 21:49:57 10° SW 21:55:35 67° WNW 22:01:14 10° NNE
Cosmos 2237 Rocket 2.1 21:52:01 10° SSW 21:57:34 67° ESE 22:03:10 10° NNE
Genesis I 4.1 21:58:15 10° NW 22:02:11 47° WSW 22:05:02 17° S
Cosmos 2056 Rocket 3.9 21:58:50 10° S 22:03:54 42° ESE 22:08:59 10° NE
Cosmos 2278 Rocket 2.3 21:59:44 10° NNW 22:05:26 78° WSW 22:09:51 17° SSE
ATLAS 5 CENTAUR R/B 4.3 22:03:47 10° NNW 22:07:34 18° NNE 22:11:36 10° ENE
Cosmos 1862 4.2 22:05:08 10° N 22:08:48 32° ENE 22:09:45 28° ESE
Helios 1A 4.1 22:08:42 24° E 22:09:53 28° ENE 22:13:28 10° N
Terra 3.7 22:09:24 13° ENE 22:10:41 15° ENE 22:13:16 10° NNE
Cosmos 2098 Rocket 3.0 22:07:13 14° S 22:11:06 58° E 22:14:48 10° NNE
NOAA 11 4.5 22:06:00 10° S 22:11:29 68° WSW 22:16:59 10° NNW
CZ-3B R/B 2.6 22:10:44 10° WNW 22:11:53 42° W 22:11:53 42° W
Cosmos 405 Rocket 3.7 22:15:05 28° E 22:15:05 28° E 22:18:22 10° NNE
Cosmos 1515 Rocket 4.0 22:11:46 10° SSW 22:16:11 63° W 22:20:38 10° N
Cosmos 405 3.1 22:13:20 10° N 22:16:48 51° ENE 22:17:29 43° ESE
Cosmos 864 Rocket 4.4 22:13:04 10° S 22:19:10 75° E 22:25:18 10° NNE
Cosmos 1624 Rocket 3.9 22:15:44 10° S 22:20:50 62° ESE 22:25:59 10° NNE
Cosmos 2228 Rocket 3.8 22:16:59 10° SSW 22:21:17 55° WNW 22:25:38 10° N
Cosmos 1190 Rocket 4.0 22:17:10 10° NNW 22:22:28 69° ENE 22:24:56 32° SE
Cosmos 1140 Rocket 4.2 22:20:35 10° N 22:25:26 38° ENE 22:27:07 30° E
Lacrosse 5 3.7 22:22:34 10° NW 22:26:43 25° NNE 22:30:32 11° ENE
Cosmos 1825 3.0 22:23:44 10° NNW 22:27:24 49° W 22:29:46 20° SSW
SPOT 5 3.4 22:28:34 33° E 22:29:36 38° ENE 22:33:43 10° N
USA 245 4.1 22:33:59 23° NNE 22:33:59 23° NNE 22:35:09 10° N
ATLAS 2AS CENTAUR R/B 3.8 22:26:52 10° NW 22:34:08 42° WSW 22:39:43 15° S
Cosmos 1954 Rocket 4.4 22:30:15 10° N 22:35:18 47° ENE 22:36:48 36° ESE
ATLAS CENTAUR R/B 3.1 22:34:22 10° WSW 22:37:43 31° NW 22:41:14 10° NNE
SL-8 R/B 3.6 22:35:39 10° WSW 22:40:27 85° SSE 22:43:31 22° ENE
GEOS 3 Rocket 3.8 22:35:53 10° NE 22:41:05 48° ESE 22:43:44 26° S
Resurs 01 Rocket 4.2 22:42:14 10° SW 22:45:15 18° W 22:48:17 10° NW
SL-16 R/B 2.1 22:43:10 16° SSW 22:47:46 70° ESE 22:53:24 10° NNE
CZ-2C R/B 4.4 22:49:11 20° ENE 22:49:32 20° ENE 22:53:02 10° NNE
ARGOS 3.5 22:48:16 26° S 22:51:12 61° W 22:56:32 10° NNW
Cosmos 2344 3.7 22:44:26 10° S 22:51:40 49° ESE 22:59:31 10° NE
Cosmos 1943 Rocket 3.9 22:48:53 10° N 22:52:50 20° NE 22:54:37 17° ENE
MetOp-B 4.4 22:51:07 30° S 22:53:43 65° WSW 22:59:04 10° NNW
Cosmos 1933 3.8 22:54:28 47° ENE 22:54:28 47° ENE 22:57:51 10° NNE
Cosmos 1727 Rocket 4.2 22:48:24 10° NNW 22:54:31 67° W 22:58:14 25° S
SL-19 R/B 4.4 22:53:15 44° ESE 22:54:47 59° ENE 23:00:17 10° N
SL-08 RB Rocket 4.0 22:56:34 40° SSW 22:57:57 60° W 23:02:24 10° NNW
Cosmos 1821 Rocket 4.1 22:57:37 43° SE 22:59:26 57° E 23:05:35 10° NNE
DMSP B5D2-2 4.0 22:58:09 10° NNE 23:03:24 68° ESE 23:04:25 55° SSE
NOSS 3-4 (A) 3.9 22:57:55 10° NW 23:04:56 72° WSW 23:07:53 40° SSE
NOSS 3-4 (C) 3.9 22:58:01 10° NW 23:05:02 73° WSW 23:07:59 40° SSE
Meteor 2-10 Rocket 4.4 23:02:01 10° SSW 23:07:37 54° WNW 23:13:20 10° N
Cosmos 1420 Rocket 4.3 23:08:01 49° E 23:08:01 49° E 23:12:48 10° NNE
SPOT 1/Viking Rocket 3.5 23:09:39 59° SSE 23:10:40 88° ENE 23:15:56 10° NNW
BREEZE-M DEB (TANK) 4.5 23:09:43 10° WNW 23:10:45 21° NW 23:10:45 21° NW
ERS-1 Rocket 3.5 23:10:08 37° SSW 23:11:46 53° W 23:16:42 10° NNW
Cosmos 614 Rocket 3.9 23:06:55 10° NNW 23:12:11 87° WSW 23:12:58 65° SSE
Cosmos 407 Rocket 4.2 23:08:07 10° NNW 23:13:00 45° WSW 23:14:30 35° SSW
USA 267 3.2 23:06:52 10° ENE 23:13:17 56° SE 23:19:41 10° SSW
Cosmos 2123 Rocket 4.2 23:08:40 10° N 23:14:51 53° ENE 23:15:50 48° ESE
Cosmos 2297 4.2 23:12:19 10° NW 23:17:49 52° WSW 23:19:22 41° SSW
H-2A R/B 2.9 23:17:10 31° SW 23:18:57 42° W 23:23:41 10° NNW
Cosmos 1441 Rocket 4.3 23:20:35 38° W 23:20:58 39° WNW 23:24:32 10° N
Cosmos 2369 Rocket 2.8 23:19:15 10° NNW 23:24:39 41° ENE 23:25:18 40° ENE
Helios 1B rocket 2.7 23:21:36 10° NNE 23:25:09 64° N 23:25:09 64° N
Landsat 7 3.8 23:29:59 76° WSW 23:30:02 76° WSW 23:34:50 10° NNW
Cosmos 1707 Rocket 4.3 23:30:05 45° WSW 23:30:37 48° WNW 23:34:50 10° N
Cosmos 1535 Rocket 4.4 23:29:32 58° S 23:30:51 81° E 23:37:16 10° N
Spot 1 4.3 23:30:45 74° SW 23:30:56 75° WSW 23:35:41 10° NNW
Cosmos 1241 Rocket 4.3 23:30:13 10° NNW 23:36:34 87° ENE 23:37:27 68° SE
Meteor 1-25 Rocket 4.1 23:33:00 10° N 23:38:47 72° ENE 23:38:56 71° E
CZ-2C R/B 3.8 23:36:04 10° NNE 23:39:32 31° ENE 23:39:32 31° ENE
Cosmos 2237 Rocket 4.5 23:37:46 10° W 23:42:09 23° NW 23:46:34 10° N
CZ-4C R/B 2.5 23:44:41 51° ENE 23:44:41 51° ENE 23:49:20 10° NE
Meteor 1-26 Rocket 4.0 23:43:38 86° S 23:43:46 89° E 23:49:22 10° N
Cosmos 1452 Rocket 3.8 23:45:53 55° WSW 23:46:44 64° WNW 23:51:58 10° NNE
RESURS DK-1 3.8 23:43:27 10° NNW 23:46:14 32° NNE 23:46:14 32° NNE
CARTOSAT-1 4.2 23:48:32 53° NW 23:48:32 53° NW 23:52:03 10° NNW
Terra 2.0 23:48:17 69° NW 23:48:17 69° NW 23:52:37 10° NNW
USA 234 3.6 23:45:38 40° E 23:47:50 58° NNE 23:54:13 10° NW
Cosmos 1733 Rocket 3.7 23:44:25 10° NNW 23:47:58 54° NW 23:47:58 54° NW
Cosmos 1605 Rocket 3.9 23:49:31 68° ESE 23:49:42 69° E 23:56:03 10° NNE
Cosmos 1437 Rocket 4.2 23:46:36 10° NNW 23:49:10 37° NW 23:49:10 37° NW
ATLAS 5 CENTAUR R/B 2.7 23:47:42 10° NNW 23:53:27 55° NE 23:54:09 52° ENE
